Regional Weather Roundup
Issued by NWS

Home | Current Version | Previous Version | Graphics & Text | Print | Product List | Glossary On
Versions: 1 2 3 4 5 6 7 8 9 10 11 12 13 14 15 16 17 18 19 20 21 22 23 24 25 26 27 28 29 30 31 32 33 34 35 36 37 38 39 40 41 42 43 44 45 46 47 48 49 50
000
ASUS43 KOAX 102110
RWRNE

WEATHER ROUNDUP FOR NEBRASKA
NATIONAL WEATHER SERVICE OMAHA NE
300 PM CST SAT DEC 10 2016

NOTES: SATELLITE DATA IS BEING USED TO AUGMENT CLOUD COVER ABOVE
       12000 FEET.
       "FAIR" INDICATES FEW OR NO CLOUDS BELOW 12,000 FEET WITH NO
       SIGNIFICANT WEATHER AND/OR OBSTRUCTIONS TO VISIBILITY.

  * THESE STATIONS DO NOT REPORT WEATHER SUCH AS RAIN...SNOW OR FOG.

NEZ001>004-019>022-054>056-102200-
NEBRASKA PANHANDLE

CITY           SKY/WX    TMP DP  RH WIND       PRES   REMARKS
SCOTTSBLUFF    CLOUDY    28  19  69 E5        29.71F WCI  23
ALLIANCE       CLOUDY    30  21  69 S12       29.70F WCI  20
CHADRON        CLOUDY    16   9  74 NE5       29.74F WCI   9
SIDNEY         CLOUDY    34  24  67 S13       29.73F WCI  25
$$

NEZ057>060-069>072-079>082-102200-
SOUTHWEST NEBRASKA

CITY           SKY/WX    TMP DP  RH WIND       PRES   REMARKS
NORTH PLATTE   CLOUDY    30  21  69 SW10      29.86F WCI  21
IMPERIAL       CLOUDY    29  22  75 S8        29.83F WCI  21
LEXINGTON      CLOUDY    31  21  65 S14       29.89F WCI  21
MCCOOK         CLOUDY    33  24  69 S10       29.86F WCI  25
OGALLALA       CLOUDY    28  22  77 S9        29.81F WCI  19
$$

NEZ005>010-023>029-035>040-094-102200-
NORTH CENTRAL NEBRASKA

CITY           SKY/WX    TMP DP  RH WIND       PRES   REMARKS
VALENTINE      CLOUDY    18  13  80 NE7       29.83F WCI   9
AINSWORTH      CLOUDY    27  22  82 SE10      29.83F WCI  17
BROKEN BOW     CLOUDY    30  20  66 S14G24    29.87F WCI  19
O`NEILL        CLOUDY    26  21  83 SE9       29.93F WCI  16
ORD            CLOUDY    30  17  58 S12G23    29.91F WCI  20
THEDFORD       CLOUDY    29  21  73 S12       29.81F WCI  19
$$

NEZ041-046>049-061>064-073>077-083>087-102200-
SOUTH CENTRAL NEBRASKA

CITY           SKY/WX    TMP DP  RH WIND       PRES   REMARKS
GRAND ISLAND   CLOUDY    31  20  63 S18G24    29.96F WCI  19
AURORA         CLOUDY    32  18  56 S15G25    29.97F WCI  22
HASTINGS       CLOUDY    33  18  53 S18G24    29.96F WCI  22
HEBRON         CLOUDY    35  19  52 S14       30.03F WCI  25
HOLDREGE       CLOUDY    32  20  62 S16G23    29.92F WCI  21
KEARNEY *      CLOUDY    32  19  59 S20       29.93F WCI  20
YORK           CLOUDY    32  16  51 S18       29.99F WCI  20
$$

NEZ011>018-030>034-042>045-102200-
NORTHEAST NEBRASKA

CITY           SKY/WX    TMP DP  RH WIND       PRES   REMARKS
NORFOLK        CLOUDY    26  18  71 SE16G24   30.00F WCI  14
ALBION         CLOUDY    29  19  64 SE17G25   29.97F WCI  17
BLAIR          CLOUDY    29  19  64 SE15      30.09F WCI  18
FREMONT        CLOUDY    29  19  64 SE15G22   30.08F WCI  18
TEKAMAH        CLOUDY    27  20  75 E15       30.12F WCI  15
WAYNE          CLOUDY    24  20  84 SE20      30.04F WCI   9
$$

NEZ050>053-065>068-078-088>093-102200-
SOUTHEAST NEBRASKA

CITY           SKY/WX    TMP DP  RH WIND       PRES   REMARKS
LINCOLN        CLOUDY    33  16  49 SE17      30.08F WCI  22
OMAHA EPPLEY   CLOUDY    30  15  53 SE14      30.13F WCI  19
BEATRICE       CLOUDY    34  17  48 SE14G20   30.06F WCI  25
FALLS CITY     CLOUDY    34  17  50 SE13      30.13F WCI  25
NEBRASKA CITY  CLOUDY    32  10  40 S15       30.11F WCI  22
PLATTSMOUTH    CLOUDY    31  13  46 SE12G17   30.11F WCI  22
$$

NEZ044-045-051>053-067-102200-
OMAHA AREA

CITY           SKY/WX    TMP DP  RH WIND       PRES   REMARKS
OMAHA EPPLEY   CLOUDY    30  15  53 SE14      30.13F WCI  19
BLAIR          CLOUDY    29  19  64 SE15      30.09F WCI  18
FREMONT        CLOUDY    29  19  64 SE15G22   30.08F WCI  18
MILLARD        CLOUDY    32  18  55 SE9       30.11F WCI  24
OFFUTT AFB     CLOUDY    31  15  53 SE15      30.12F WCI  20
PLATTSMOUTH    CLOUDY    31  13  46 SE12G17   30.11F WCI  22
WAHOO          CLOUDY    31  16  55 SE20      30.07F WCI  18
$$




USA.gov is the U.S. government's official web portal to all federal, state and local government web resources and services.